Home   Weather   Conakry   Past weeks

Flag for Guinea Past Weather in Conakry, Guinea — Yesterday and Last 2 Weeks

Now
86 °F

Broken clouds.


Feels Like: 97 °F
Forecast: N/A
Wind: 14 mph from Southwest

Location: Conakry / Gbessia

Current Time: Oct 1, 2016 at 5:26:40 PM

Latest Report: Oct 1, 2016 at 4:00 PM


Visibility: N/A

Pressure: 29.83 "Hg

Humidity: 75%

Dew Point: 77 °F

Location of ConakryLocation

Past Weather in Conakry — Graph

°F

Conakry Temperature Yesterday

Maximum temperature yesterday: 84 °F (at 4:00 PM)
Minimum temperature yesterday: 75 °F (at 12:00 AM)
Average temperature yesterday: 80 °F

High & Low Weather Summary for the Past Weeks

 TemperatureHumidityPressure
High88 °F (Sep 21, 3:00 PM)100% (Sep 17, 4:00 AM)30.09 "Hg (Sep 17, 4:00 AM)
Low72 °F (Sep 19, 5:00 AM)70% (Sep 19, 12:00 PM)29.77 "Hg (Sep 26, 4:00 PM)
Average80 °F89%29.90 "Hg
* Reported Sep 16 4:00 PM — Oct 1 4:00 PM, Conakry, Weather by CustomWeather, © 2016

Note: Actual official high and low records may vary slightly from our data, if they occured in-between our weather recording intervals... More about our weather records

Advertising

Conakry Weather History for the Previous 24 Hours

Scroll right to see more
 ConditionsComfort  
Time TempWeatherWind HumidityBarometerVisibility
4:00 PM
Sat, Oct 1
86 °FBroken clouds.14 mph75%29.83 "HgN/A
3:00 PM86 °FBroken clouds.14 mph84%29.86 "HgN/A
2:00 PM86 °FPartly sunny.12 mph79%29.86 "HgN/A
1:00 PM86 °FPartly sunny.12 mph79%29.89 "HgN/A
11:00 AM84 °FPartly sunny.7 mph84%29.92 "HgN/A
10:00 AM84 °FPartly sunny.7 mph84%29.92 "HgN/A
9:00 AM84 °FPartly sunny.5 mph79%29.92 "HgN/A
8:00 AM81 °FScattered clouds.No wind94%29.89 "HgN/A
6:00 AM79 °FPassing clouds.No wind94%29.86 "HgN/A
5:00 AM79 °FPassing clouds.No wind94%29.86 "HgN/A
3:00 AM79 °FPassing clouds.No wind94%29.86 "HgN/A
2:00 AM79 °FPassing clouds.No wind94%29.86 "HgN/A
1:00 AM79 °FPassing clouds.No wind94%29.89 "HgN/A
12:00 AM79 °FPassing clouds.No wind94%29.92 "HgN/A
11:00 PM
Fri, Sep 30
79 °FPassing clouds.5 mph94%29.92 "HgN/A
9:00 PM81 °FPassing clouds.9 mph94%29.89 "HgN/A
8:00 PM81 °FPassing clouds.7 mph94%29.86 "HgN/A
7:00 PM81 °FPartly cloudy.7 mph94%29.83 "HgN/A
5:00 PM84 °FScattered clouds.9 mph79%29.83 "HgN/A
Weather by CustomWeather, © 2016

See weather overviewHow to use our weather pages